EN

Hourly Weather Dzilebki

Today, 20 October, Tuesday

Time Temperature Precipitation Wind Pressure Humidity
00:00 +10°C° 0 mm 3 mps 625 mmHg 41%
01:00 +9°C° 0 mm 2 mps 625 mmHg 44%
02:00 +10°C° 0 mm 1 mps 625 mmHg 47%
03:00 +9°C° 0 mm 1 mps 625 mmHg 49%
04:00 +9°C° 0 mm 1 mps 626 mmHg 53%
05:00 +8°C° 0 mm 1 mps 626 mmHg 56%
06:00 +8°C° 0 mm 1 mps 626 mmHg 60%
07:00 +9°C° 0 mm 1 mps 627 mmHg 60%
08:00 +9°C° 0 mm 2 mps 628 mmHg 61%
09:00 +12°C° 0 mm 2 mps 628 mmHg 61%
10:00 +10°C° 0 mm 2 mps 628 mmHg 65%
11:00 +10°C° 0 mm 3 mps 628 mmHg 70%
12:00 +10°C° 0 mm 3 mps 628 mmHg 74%
13:00 +9°C° 0 mm 3 mps 628 mmHg 77%
14:00 +8°C° 0 mm 3 mps 628 mmHg 81%
15:00 +7°C° 0 mm 2 mps 627 mmHg 84%
16:00 +7°C° 0 mm 2 mps 627 mmHg 87%
17:00 +6°C° 0 mm 2 mps 627 mmHg 90%
18:00 +7°C° 0 mm 1 mps 627 mmHg 93%
19:00 +7°C° 0 mm 1 mps 627 mmHg 94%
20:00 +7°C° 0 mm 1 mps 627 mmHg 94%
21:00 +7°C° 0 mm 1 mps 628 mmHg 94%
22:00 +6°C° 0 mm 1 mps 628 mmHg 94%
23:00 +6°C° 0 mm 1 mps 628 mmHg 94%

Tomorrow, 21 October, Wednesday

Time Temperature Precipitation Wind Pressure Humidity
00:00 +6°C° 0 mm 1 mps 628 mmHg 95%
01:00 +6°C° 0.3 mm 1 mps 628 mmHg 95%
02:00 +6°C° 0.3 mm 1 mps 628 mmHg 95%
03:00 +6°C° 0.3 mm 1 mps 628 mmHg 95%
04:00 +6°C° 0.5 mm 1 mps 628 mmHg 95%
05:00 +6°C° 0.5 mm 1 mps 628 mmHg 94%
06:00 +6°C° 0.5 mm 1 mps 628 mmHg 94%
07:00 +6°C° 0.2 mm 1 mps 629 mmHg 93%
08:00 +6°C° 0.2 mm 1 mps 629 mmHg 93%
09:00 +6°C° 0.2 mm 1 mps 630 mmHg 92%
10:00 +6°C° 0.1 mm 1 mps 630 mmHg 92%
11:00 +7°C° 0.1 mm 1 mps 630 mmHg 91%
12:00 +7°C° 0.1 mm 1 mps 630 mmHg 91%
13:00 +7°C° 0 mm 1 mps 630 mmHg 90%
14:00 +7°C° 0 mm 1 mps 630 mmHg 90%
15:00 +7°C° 0 mm 1 mps 630 mmHg 90%
16:00 +7°C° 0 mm 1 mps 630 mmHg 91%
17:00 +6°C° 0 mm 1 mps 630 mmHg 91%
18:00 +6°C° 0 mm 1 mps 630 mmHg 92%
19:00 +6°C° 0 mm 1 mps 629 mmHg 88%
20:00 +5°C° 0 mm 1 mps 629 mmHg 84%
21:00 +5°C° 0 mm 1 mps 629 mmHg 80%
22:00 +5°C° 0 mm 1 mps 629 mmHg 75%
23:00 +4°C° 0 mm 1 mps 629 mmHg 70%

Day after tomorrow, 22 October, Thursday

Time Temperature Precipitation Wind Pressure Humidity
00:00 +4°C° 0 mm 1 mps 628 mmHg 65%
01:00 +4°C° 0 mm 1 mps 628 mmHg 64%
02:00 +4°C° 0 mm 1 mps 628 mmHg 62%
03:00 +3°C° 0 mm 2 mps 627 mmHg 60%
04:00 +4°C° 0 mm 1 mps 627 mmHg 57%
05:00 +4°C° 0 mm 1 mps 627 mmHg 55%
06:00 +4°C° 0 mm 1 mps 627 mmHg 52%
07:00 +6°C° 0 mm 1 mps 628 mmHg 49%
08:00 +8°C° 0 mm 1 mps 628 mmHg 45%
09:00 +9°C° 0 mm 1 mps 629 mmHg 42%
10:00 +10°C° 0 mm 1 mps 629 mmHg 44%
11:00 +11°C° 0 mm 1 mps 629 mmHg 47%
12:00 +10°C° 0 mm 2 mps 629 mmHg 49%
13:00 +10°C° 0 mm 2 mps 629 mmHg 51%
14:00 +10°C° 0 mm 2 mps 629 mmHg 53%
15:00 +10°C° 0 mm 2 mps 628 mmHg 56%
16:00 +10°C° 0 mm 1 mps 628 mmHg 66%
17:00 +8°C° 0 mm 1 mps 627 mmHg 76%
18:00 +5°C° 0 mm 0 mps 627 mmHg 86%
19:00 +5°C° 0 mm 0 mps 627 mmHg 82%
20:00 +5°C° 0 mm 0 mps 627 mmHg 78%
21:00 +6°C° 0 mm 1 mps 627 mmHg 74%
22:00 +6°C° 0 mm 1 mps 627 mmHg 73%
23:00 +6°C° 0 mm 1 mps 627 mmHg 73%

23 October, Friday

Time Temperature Precipitation Wind Pressure Humidity
00:00 +4°C° 0 mm 0 mps 627 mmHg 73%
01:00 +5°C° 0 mm 1 mps 627 mmHg 72%
02:00 +5°C° 0 mm 1 mps 627 mmHg 71%
03:00 +5°C° 0 mm 1 mps 626 mmHg 71%
04:00 +5°C° 0 mm 1 mps 627 mmHg 70%
05:00 +5°C° 0 mm 1 mps 627 mmHg 69%
06:00 +5°C° 0 mm 1 mps 627 mmHg 68%
07:00 +6°C° 0 mm 1 mps 628 mmHg 64%
08:00 +8°C° 0 mm 1 mps 628 mmHg 60%
09:00 +10°C° 0 mm 1 mps 629 mmHg 56%
10:00 +9°C° 0 mm 2 mps 630 mmHg 56%
11:00 +10°C° 0 mm 2 mps 630 mmHg 56%
12:00 +12°C° 0 mm 2 mps 630 mmHg 55%
13:00 +10°C° 0 mm 2 mps 630 mmHg 60%
14:00 +10°C° 0 mm 2 mps 630 mmHg 65%
15:00 +10°C° 0 mm 2 mps 629 mmHg 70%
16:00 +8°C° 0 mm 2 mps 629 mmHg 77%
17:00 +8°C° 0 mm 1 mps 629 mmHg 83%
18:00 +7°C° 0 mm 1 mps 628 mmHg 89%
19:00 +7°C° 0 mm 1 mps 628 mmHg 87%
20:00 +7°C° 0 mm 1 mps 629 mmHg 84%
21:00 +7°C° 0 mm 1 mps 629 mmHg 82%
22:00 +7°C° 0 mm 1 mps 629 mmHg 79%
23:00 +7°C° 0 mm 1 mps 628 mmHg 77%

24 October, Saturday

Time Temperature Precipitation Wind Pressure Humidity
00:00 +7°C° 0 mm 1 mps 628 mmHg 74%
01:00 +7°C° 0 mm 1 mps 628 mmHg 71%
02:00 +7°C° 0 mm 1 mps 628 mmHg 67%
03:00 +6°C° 0 mm 2 mps 628 mmHg 64%
04:00 +6°C° 0 mm 2 mps 627 mmHg 60%
05:00 +6°C° 0 mm 2 mps 627 mmHg 57%
06:00 +7°C° 0 mm 2 mps 627 mmHg 54%
07:00 +10°C° 0 mm 1 mps 628 mmHg 48%
08:00 +12°C° 0 mm 1 mps 629 mmHg 43%
09:00 +15°C° 0 mm 1 mps 630 mmHg 37%
10:00 +16°C° 0 mm 1 mps 630 mmHg 35%
11:00 +18°C° 0 mm 1 mps 630 mmHg 34%
12:00 +19°C° 0 mm 1 mps 630 mmHg 32%
13:00 +19°C° 0 mm 1 mps 629 mmHg 34%
14:00 +19°C° 0 mm 1 mps 629 mmHg 36%
15:00 +19°C° 0 mm 1 mps 629 mmHg 38%
16:00 +16°C° 0 mm 1 mps 628 mmHg 40%
17:00 +15°C° 0 mm 1 mps 627 mmHg 43%
18:00 +13°C° 0 mm 1 mps 627 mmHg 46%
19:00 +13°C° 0 mm 2 mps 626 mmHg 44%
20:00 +13°C° 0 mm 2 mps 626 mmHg 42%
21:00 +12°C° 0 mm 2 mps 626 mmHg 41%
22:00 +12°C° 0 mm 2 mps 626 mmHg 38%
23:00 +12°C° 0 mm 2 mps 626 mmHg 36%

25 October, Sunday

Time Temperature Precipitation Wind Pressure Humidity
00:00 +12°C° 0 mm 2 mps 625 mmHg 33%
01:00 +12°C° 0 mm 2 mps 625 mmHg 32%
02:00 +10°C° 0 mm 2 mps 625 mmHg 30%
03:00 +10°C° 0 mm 2 mps 624 mmHg 29%
04:00 +10°C° 0 mm 2 mps 624 mmHg 29%
05:00 +10°C° 0 mm 2 mps 624 mmHg 29%
06:00 +10°C° 0 mm 2 mps 624 mmHg 29%
07:00 +13°C° 0 mm 2 mps 625 mmHg 29%
08:00 +15°C° 0 mm 1 mps 625 mmHg 29%
09:00 +18°C° 0 mm 1 mps 626 mmHg 29%
10:00 +18°C° 0 mm 1 mps 626 mmHg 29%
11:00 +19°C° 0 mm 1 mps 626 mmHg 30%
12:00 +18°C° 0 mm 2 mps 626 mmHg 30%
13:00 +18°C° 0 mm 2 mps 625 mmHg 33%
14:00 +17°C° 0 mm 2 mps 625 mmHg 36%
15:00 +18°C° 0 mm 1 mps 625 mmHg 40%
16:00 +15°C° 0 mm 1 mps 624 mmHg 45%
17:00 +13°C° 0 mm 1 mps 624 mmHg 50%
18:00 +11°C° 0 mm 1 mps 623 mmHg 55%
19:00 +11°C° 0 mm 1 mps 623 mmHg 52%
20:00 +11°C° 0 mm 1 mps 623 mmHg 49%
21:00 +11°C° 0 mm 1 mps 623 mmHg 46%
22:00 +11°C° 0 mm 1 mps 623 mmHg 45%
23:00 +11°C° 0 mm 1 mps 623 mmHg 43%

26 October, Monday

Time Temperature Precipitation Wind Pressure Humidity
00:00 +11°C° 0 mm 1 mps 623 mmHg 42%
01:00 +10°C° 0 mm 1 mps 624 mmHg 45%
02:00 +10°C° 0 mm 1 mps 624 mmHg 49%
03:00 +9°C° 0 mm 1 mps 624 mmHg 53%
04:00 +9°C° 0 mm 1 mps 624 mmHg 57%
05:00 +8°C° 0 mm 1 mps 624 mmHg 62%
06:00 +7°C° 0 mm 1 mps 623 mmHg 67%
07:00 +8°C° 0 mm 1 mps 624 mmHg 66%
08:00 +8°C° 0 mm 2 mps 624 mmHg 64%
09:00 +9°C° 0 mm 2 mps 625 mmHg 63%
10:00 +9°C° 0 mm 2 mps 625 mmHg 65%
11:00 +9°C° 0 mm 2 mps 625 mmHg 66%
12:00 +9°C° 0 mm 3 mps 625 mmHg 68%
13:00 +8°C° 0.1 mm 2 mps 625 mmHg 75%
14:00 +8°C° 0.1 mm 2 mps 625 mmHg 81%
15:00 +7°C° 0.1 mm 2 mps 625 mmHg 88%
16:00 +7°C° 0.1 mm 2 mps 625 mmHg 90%
17:00 +7°C° 0.1 mm 1 mps 625 mmHg 92%
18:00 +7°C° 0.1 mm 1 mps 625 mmHg 93%
19:00 +7°C° 0 mm 1 mps 625 mmHg 93%
20:00 +7°C° 0 mm 1 mps 625 mmHg 93%
21:00 +6°C° 0 mm 1 mps 625 mmHg 93%
22:00 +6°C° 0 mm 1 mps 625 mmHg 92%
23:00 +6°C° 0 mm 1 mps 625 mmHg 92%
Show more